Location: Claremont
(33.9858°S, 18.4575°E)
Time: 05:53:46
(UTC+00:00)

Okean 1-7 - Pass Details

Date: 03 March 2021
Orbit: 589 x 619 km, 82.5° (Epoch: 17 April)

Event Time Altitude Azimuth Distance (km) Brightness Sun altitude
Exits shadow 18:25:15 23° 74° (ENE) 1,290 4.1 -14.0°
Maximum altitude 18:26:01 24° 91° (E) 1,250 4.1 -14.2°
Drops below altitude 10° 18:29:29 10° 145° (SE) 1,947 5.4 -14.9°
Sets 18:32:00 0° 158° (SSE) 2,856 6.4 -15.4°
